Time,TemperatureF,DewpointF,PressureIn,WindDirection,WindDirectionDegrees,WindSpeedMPH,WindSpeedGustMPH,Humidity,HourlyPrecipIn,Conditions,Clouds,dailyrainin,SoftwareType,DateUTC
2013-02-28 00:01:00,22.0,19.0,-100.00,East,96,0.0,1.0,88,0.00,,,-99.99,,2013-02-28 07:01:00,
2013-02-28 00:11:00,22.0,19.0,-100.00,ENE,71,0.0,2.0,90,0.00,,,-99.99,,2013-02-28 07:11:00,
2013-02-28 00:21:00,22.0,20.0,-100.00,ENE,76,1.0,1.0,89,0.00,,,-99.99,,2013-02-28 07:21:00,
2013-02-28 00:31:00,22.0,20.0,-100.00,ENE,76,1.0,1.0,89,0.00,,,-99.99,,2013-02-28 07:31:00,
2013-02-28 00:41:00,22.0,19.0,-100.00,ENE,76,1.0,2.0,88,0.00,,,-99.99,,2013-02-28 07:41:00,
2013-02-28 00:52:00,21.0,19.0,-100.00,ENE,76,0.0,1.0,91,0.00,,,-99.99,,2013-02-28 07:52:00,
2013-02-28 01:01:00,21.0,19.0,-100.00,ENE,76,0.0,1.0,91,0.00,,,-99.99,,2013-02-28 08:01:00,
2013-02-28 01:11:00,22.0,20.0,-100.00,ENE,76,1.0,3.0,92,0.00,,,-99.99,,2013-02-28 08:11:00,
2013-02-28 01:21:00,22.0,20.0,-100.00,ENE,76,1.0,3.0,92,0.00,,,-99.99,,2013-02-28 08:21:00,
2013-02-28 01:31:00,22.0,20.0,-100.00,ENE,76,1.0,3.0,92,0.00,,,-99.99,,2013-02-28 08:31:00,
2013-02-28 01:42:00,23.0,20.0,-100.00,East,83,0.0,1.0,87,0.00,,,-99.99,,2013-02-28 08:42:00,
2013-02-28 01:53:00,23.0,20.0,-100.00,East,83,0.0,1.0,87,0.00,,,-99.99,,2013-02-28 08:53:00,
2013-02-28 02:03:00,23.0,20.0,-100.00,East,83,0.0,1.0,87,0.00,,,-99.99,,2013-02-28 09:03:00,
2013-02-28 02:11:00,24.0,20.0,-100.00,SE,137,0.0,0.0,84,0.00,,,-99.99,,2013-02-28 09:11:00,
2013-02-28 02:21:00,25.0,20.0,-100.00,East,100,1.0,2.0,82,0.00,,,-99.99,,2013-02-28 09:21:00,
2013-02-28 02:31:00,25.0,20.0,-100.00,East,100,1.0,2.0,82,0.00,,,-99.99,,2013-02-28 09:31:00,
2013-02-28 02:41:00,25.0,20.0,-100.00,SE,124,0.0,1.0,81,0.00,,,-99.99,,2013-02-28 09:41:00,
2013-02-28 02:52:00,26.0,22.0,-100.00,ENE,64,0.0,0.0,85,0.71,,,-99.99,,2013-02-28 09:52:00,
2013-02-28 03:01:00,26.0,22.0,-100.00,ENE,64,0.0,0.0,85,0.71,,,-99.99,,2013-02-28 10:01:00,
2013-02-28 03:11:00,26.0,22.0,-100.00,ENE,64,0.0,0.0,85,0.71,,,-99.99,,2013-02-28 10:11:00,
2013-02-28 03:21:00,25.0,23.0,-100.00,ESE,103,2.0,3.0,94,1.06,,,-99.99,,2013-02-28 10:21:00,
2013-02-28 03:31:00,25.0,23.0,-100.00,ESE,103,2.0,3.0,94,1.06,,,-99.99,,2013-02-28 10:31:00,
2013-02-28 03:42:00,25.0,24.0,-100.00,East,96,2.0,4.0,96,1.02,,,-99.99,,2013-02-28 10:42:00,
2013-02-28 03:52:00,25.0,25.0,-100.00,ESE,117,2.0,3.0,98,1.18,,,-99.99,,2013-02-28 10:52:00,
2013-02-28 04:01:00,25.0,25.0,-100.00,ESE,117,2.0,3.0,98,1.18,,,-99.99,,2013-02-28 11:01:00,
2013-02-28 04:11:00,25.0,24.0,-100.00,ENE,73,2.0,2.0,98,0.31,,,-99.99,,2013-02-28 11:11:00,
2013-02-28 04:21:00,25.0,25.0,-100.00,ENE,73,1.0,2.0,99,0.35,,,-99.99,,2013-02-28 11:21:00,
2013-02-28 04:31:00,25.0,25.0,-100.00,ENE,73,1.0,2.0,99,0.35,,,-99.99,,2013-02-28 11:31:00,
2013-02-28 04:41:00,25.0,25.0,-100.00,East,90,0.0,2.0,99,0.94,,,-99.99,,2013-02-28 11:41:00,
2013-02-28 04:52:00,25.0,25.0,-100.00,East,89,1.0,2.0,99,0.98,,,-99.99,,2013-02-28 11:52:00,
2013-02-28 05:01:00,25.0,25.0,-100.00,East,89,1.0,2.0,99,0.98,,,-99.99,,2013-02-28 12:01:00,
2013-02-28 05:11:00,25.0,25.0,-100.00,East,85,2.0,4.0,100,0.08,,,-99.99,,2013-02-28 12:11:00,
2013-02-28 05:21:00,26.0,26.0,-100.00,East,90,1.0,2.0,100,0.12,,,-99.99,,2013-02-28 12:21:00,
2013-02-28 05:31:00,26.0,26.0,-100.00,East,90,1.0,2.0,100,0.12,,,-99.99,,2013-02-28 12:31:00,
2013-02-28 05:42:00,26.0,26.0,-100.00,East,90,2.0,5.0,100,0.20,,,-99.99,,2013-02-28 12:42:00,
2013-02-28 05:52:00,26.0,26.0,-100.00,East,99,2.0,3.0,100,0.24,,,-99.99,,2013-02-28 12:52:00,
2013-02-28 06:01:00,26.0,26.0,-100.00,East,99,2.0,3.0,100,0.24,,,-99.99,,2013-02-28 13:01:00,
2013-02-28 06:11:00,26.0,26.0,-100.00,East,96,2.0,4.0,100,0.63,,,-99.99,,2013-02-28 13:11:00,
2013-02-28 06:21:00,26.0,26.0,-100.00,East,85,1.0,3.0,100,0.12,,,-99.99,,2013-02-28 13:21:00,
2013-02-28 06:31:00,26.0,26.0,-100.00,East,85,1.0,3.0,100,0.12,,,-99.99,,2013-02-28 13:31:00,
2013-02-28 06:41:00,26.0,26.0,-100.00,East,79,2.0,4.0,100,0.16,,,-99.99,,2013-02-28 13:41:00,
2013-02-28 06:52:00,26.0,26.0,-100.00,ENE,69,3.0,4.0,100,0.04,,,-99.99,,2013-02-28 13:52:00,
2013-02-28 07:01:00,26.0,26.0,-100.00,ENE,69,3.0,4.0,100,0.04,,,-99.99,,2013-02-28 14:01:00,
2013-02-28 07:11:00,26.0,26.0,-100.00,ENE,69,3.0,4.0,100,0.04,,,-99.99,,2013-02-28 14:11:00,
2013-02-28 07:21:00,26.0,26.0,-100.00,ENE,64,2.0,4.0,100,0.16,,,-99.99,,2013-02-28 14:21:00,
2013-02-28 07:31:00,26.0,26.0,-100.00,ENE,64,2.0,4.0,100,0.16,,,-99.99,,2013-02-28 14:31:00,
2013-02-28 07:42:00,25.0,25.0,-100.00,ENE,78,2.0,3.0,100,0.43,,,-99.99,,2013-02-28 14:42:00,
2013-02-28 07:52:00,26.0,26.0,-100.00,East,79,2.0,3.0,100,0.20,,,-99.99,,2013-02-28 14:52:00,
2013-02-28 08:01:00,26.0,26.0,-100.00,East,79,2.0,3.0,100,0.20,,,-99.99,,2013-02-28 15:01:00,
2013-02-28 08:11:00,26.0,26.0,-100.00,East,86,1.0,2.0,100,0.79,,,-99.99,,2013-02-28 15:11:00,
2013-02-28 08:21:00,26.0,26.0,-100.00,East,85,1.0,2.0,100,1.06,,,-99.99,,2013-02-28 15:21:00,
2013-02-28 08:31:00,26.0,26.0,-100.00,East,85,1.0,2.0,100,1.06,,,-99.99,,2013-02-28 15:31:00,
2013-02-28 08:41:00,26.0,26.0,-100.00,East,89,1.0,1.0,100,0.55,,,-99.99,,2013-02-28 15:41:00,
2013-02-28 08:52:00,26.0,26.0,-100.00,East,85,2.0,3.0,100,0.28,,,-99.99,,2013-02-28 15:52:00,
2013-02-28 09:01:00,26.0,26.0,-100.00,East,85,2.0,3.0,100,0.28,,,-99.99,,2013-02-28 16:01:00,
2013-02-28 09:11:00,26.0,26.0,-100.00,ENE,73,1.0,3.0,100,0.31,,,-99.99,,2013-02-28 16:11:00,
2013-02-28 09:21:00,26.0,26.0,-100.00,ENE,73,1.0,3.0,100,0.31,,,-99.99,,2013-02-28 16:21:00,
2013-02-28 09:31:00,26.0,26.0,-100.00,ENE,73,1.0,3.0,100,0.31,,,-99.99,,2013-02-28 16:31:00,
2013-02-28 09:42:00,27.0,27.0,-100.00,East,90,1.0,2.0,100,0.75,,,-99.99,,2013-02-28 16:42:00,
2013-02-28 09:52:00,27.0,27.0,-100.00,East,90,1.0,2.0,100,0.75,,,-99.99,,2013-02-28 16:52:00,
2013-02-28 10:01:00,27.0,27.0,-100.00,East,90,1.0,2.0,100,0.75,,,-99.99,,2013-02-28 17:01:00,
2013-02-28 10:11:00,28.0,28.0,-100.00,East,93,2.0,3.0,98,0.55,,,-99.99,,2013-02-28 17:11:00,
2013-02-28 10:21:00,28.0,28.0,-100.00,East,85,2.0,4.0,97,0.08,,,-99.99,,2013-02-28 17:21:00,
2013-02-28 10:32:00,28.0,28.0,-100.00,East,85,2.0,4.0,97,0.08,,,-99.99,,2013-02-28 17:32:00,
2013-02-28 10:41:00,29.0,29.0,-100.00,East,88,2.0,3.0,97,0.12,,,-99.99,,2013-02-28 17:41:00,
2013-02-28 10:52:00,29.0,28.0,-100.00,ENE,66,3.0,6.0,95,0.16,,,-99.99,,2013-02-28 17:52:00,
2013-02-28 11:01:00,29.0,28.0,-100.00,ENE,66,3.0,6.0,95,0.16,,,-99.99,,2013-02-28 18:01:00,
2013-02-28 11:11:00,30.0,29.0,-100.00,East,89,2.0,3.0,97,0.16,,,-99.99,,2013-02-28 18:11:00,
2013-02-28 11:21:00,30.0,29.0,-100.00,ENE,76,2.0,4.0,95,0.24,,,-99.99,,2013-02-28 18:21:00,
2013-02-28 11:31:00,30.0,29.0,-100.00,ENE,76,2.0,4.0,95,0.24,,,-99.99,,2013-02-28 18:31:00,
2013-02-28 11:41:00,30.0,29.0,-100.00,East,89,2.0,3.0,97,0.00,,,-99.99,,2013-02-28 18:41:00,
2013-02-28 11:52:00,30.0,29.0,-100.00,East,89,2.0,3.0,97,0.00,,,-99.99,,2013-02-28 18:52:00,
2013-02-28 12:01:00,30.0,29.0,-100.00,East,89,2.0,3.0,97,0.00,,,-99.99,,2013-02-28 19:01:00,
2013-02-28 12:11:00,30.0,29.0,-100.00,ENE,68,2.0,3.0,97,0.12,,,-99.99,,2013-02-28 19:11:00,
2013-02-28 12:21:00,30.0,29.0,-100.00,East,88,1.0,3.0,96,1.30,,,-99.99,,2013-02-28 19:21:00,
2013-02-28 12:31:00,30.0,29.0,-100.00,East,88,1.0,3.0,96,1.30,,,-99.99,,2013-02-28 19:31:00,
2013-02-28 12:41:00,31.0,30.0,-100.00,ENE,69,2.0,4.0,97,0.87,,,-99.99,,2013-02-28 19:41:00,
2013-02-28 12:52:00,32.0,31.0,-100.00,East,90,2.0,4.0,97,0.24,,,-99.99,,2013-02-28 19:52:00,
2013-02-28 13:01:00,32.0,31.0,-100.00,East,90,2.0,4.0,97,0.24,,,-99.99,,2013-02-28 20:01:00,
2013-02-28 13:11:00,32.0,31.0,-100.00,ENE,62,3.0,4.0,95,0.04,,,-99.99,,2013-02-28 20:11:00,
2013-02-28 13:21:00,32.0,31.0,-100.00,ENE,76,2.0,3.0,97,0.08,,,-99.99,,2013-02-28 20:21:00,
2013-02-28 13:31:00,32.0,31.0,-100.00,ENE,76,2.0,3.0,97,0.08,,,-99.99,,2013-02-28 20:31:00,
2013-02-28 13:41:00,32.0,31.0,-100.00,ENE,76,2.0,3.0,97,0.08,,,-99.99,,2013-02-28 20:41:00,
2013-02-28 13:52:00,32.0,31.0,-100.00,East,95,2.0,5.0,97,0.31,,,-99.99,,2013-02-28 20:52:00,
2013-02-28 14:01:00,32.0,31.0,-100.00,East,95,2.0,5.0,97,0.31,,,-99.99,,2013-02-28 21:01:00,
2013-02-28 14:11:00,32.0,31.0,-100.00,ENE,68,1.0,4.0,97,0.83,,,-99.99,,2013-02-28 21:11:00,
2013-02-28 14:22:00,33.0,32.0,-100.00,NE,45,3.0,5.0,97,0.00,,,-99.99,,2013-02-28 21:22:00,
2013-02-28 14:31:00,33.0,32.0,-100.00,NE,45,3.0,5.0,97,0.00,,,-99.99,,2013-02-28 21:31:00,
2013-02-28 14:41:00,33.0,32.0,-100.00,East,92,3.0,5.0,97,0.04,,,-99.99,,2013-02-28 21:41:00,
2013-02-28 14:52:00,33.0,32.0,-100.00,ENE,58,3.0,4.0,97,0.00,,,-99.99,,2013-02-28 21:52:00,
2013-02-28 15:01:00,33.0,32.0,-100.00,ENE,58,3.0,4.0,97,0.00,,,-99.99,,2013-02-28 22:01:00,
2013-02-28 15:11:00,33.0,33.0,-100.00,NE,54,1.0,2.0,98,0.16,,,-99.99,,2013-02-28 22:11:00,
2013-02-28 15:21:00,33.0,33.0,-100.00,East,80,2.0,5.0,99,0.28,,,-99.99,,2013-02-28 22:21:00,
2013-02-28 15:31:00,33.0,33.0,-100.00,East,80,2.0,5.0,99,0.28,,,-99.99,,2013-02-28 22:31:00,
2013-02-28 15:41:00,33.0,33.0,-100.00,ENE,64,4.0,6.0,99,0.08,,,-99.99,,2013-02-28 22:41:00,
2013-02-28 15:52:00,33.0,33.0,-100.00,ENE,61,3.0,4.0,99,0.04,,,-99.99,,2013-02-28 22:52:00,
2013-02-28 16:01:00,33.0,33.0,-100.00,ENE,61,3.0,4.0,99,0.04,,,-99.99,,2013-02-28 23:01:00,
2013-02-28 16:11:00,33.0,33.0,-100.00,ENE,72,3.0,4.0,99,0.04,,,-99.99,,2013-02-28 23:11:00,
2013-02-28 16:21:00,34.0,33.0,-100.00,ENE,76,3.0,3.0,99,0.04,,,-99.99,,2013-02-28 23:21:00,
2013-02-28 16:31:00,34.0,33.0,-100.00,ENE,76,3.0,3.0,99,0.04,,,-99.99,,2013-02-28 23:31:00,
2013-02-28 16:41:00,34.0,34.0,-100.00,ENE,71,1.0,3.0,99,0.00,,,-99.99,,2013-02-28 23:41:00,
2013-02-28 16:52:00,33.0,33.0,-100.00,NE,38,2.0,4.0,99,0.04,,,-99.99,,2013-02-28 23:52:00,
2013-02-28 17:01:00,33.0,33.0,-100.00,NE,38,2.0,4.0,99,0.04,,,-99.99,,2013-03-01 00:01:00,
2013-02-28 17:11:00,34.0,33.0,-100.00,East,83,1.0,3.0,100,0.20,,,-99.99,,2013-03-01 00:11:00,
2013-02-28 17:22:00,34.0,33.0,-100.00,East,83,1.0,3.0,100,0.20,,,-99.99,,2013-03-01 00:22:00,
2013-02-28 17:32:00,34.0,33.0,-100.00,East,83,1.0,3.0,100,0.20,,,-99.99,,2013-03-01 00:32:00,
2013-02-28 17:41:00,33.0,33.0,-100.00,NNE,23,2.0,3.0,100,0.00,,,-99.99,,2013-03-01 00:41:00,
2013-02-28 17:52:00,33.0,33.0,-100.00,ENE,58,0.0,1.0,100,0.00,,,-99.99,,2013-03-01 00:52:00,
2013-02-28 18:01:00,33.0,33.0,-100.00,ENE,58,0.0,1.0,100,0.00,,,-99.99,,2013-03-01 01:01:00,
2013-02-28 18:11:00,33.0,33.0,-100.00,ENE,71,1.0,4.0,100,0.08,,,-99.99,,2013-03-01 01:11:00,
2013-02-28 18:21:00,33.0,33.0,-100.00,WNW,285,2.0,2.0,100,0.04,,,-99.99,,2013-03-01 01:21:00,
2013-02-28 18:31:00,33.0,33.0,-100.00,WNW,285,2.0,2.0,100,0.04,,,-99.99,,2013-03-01 01:31:00,
2013-02-28 18:42:00,33.0,33.0,-100.00,WNW,285,2.0,2.0,100,0.04,,,-99.99,,2013-03-01 01:42:00,
2013-02-28 18:52:00,32.0,32.0,-100.00,West,277,2.0,3.0,100,0.08,,,-99.99,,2013-03-01 01:52:00,
2013-02-28 19:01:00,32.0,32.0,-100.00,West,277,2.0,3.0,100,0.08,,,-99.99,,2013-03-01 02:01:00,
2013-02-28 19:11:00,32.0,32.0,-100.00,West,277,2.0,2.0,100,0.08,,,-99.99,,2013-03-01 02:11:00,
2013-02-28 19:21:00,32.0,32.0,-100.00,West,272,1.0,2.0,100,0.08,,,-99.99,,2013-03-01 02:21:00,
2013-02-28 19:31:00,32.0,32.0,-100.00,West,272,1.0,2.0,100,0.08,,,-99.99,,2013-03-01 02:31:00,
2013-02-28 19:42:00,32.0,32.0,-100.00,West,277,0.0,1.0,100,0.08,,,-99.99,,2013-03-01 02:42:00,
2013-02-28 19:52:00,32.0,32.0,-100.00,WNW,287,0.0,1.0,100,0.12,,,-99.99,,2013-03-01 02:52:00,
2013-02-28 20:01:00,32.0,32.0,-100.00,WNW,287,0.0,1.0,100,0.12,,,-99.99,,2013-03-01 03:01:00,
2013-02-28 20:11:00,32.0,32.0,-100.00,SW,224,0.0,0.0,100,0.04,,,-99.99,,2013-03-01 03:11:00,
2013-02-28 20:21:00,32.0,32.0,-100.00,ESE,117,0.0,0.0,100,0.08,,,-99.99,,2013-03-01 03:21:00,
2013-02-28 20:32:00,32.0,32.0,-100.00,ESE,117,0.0,0.0,100,0.08,,,-99.99,,2013-03-01 03:32:00,
2013-02-28 20:41:00,32.0,32.0,-100.00,ESE,112,0.0,1.0,100,0.24,,,-99.99,,2013-03-01 03:41:00,
2013-02-28 20:52:00,32.0,32.0,-100.00,ESE,112,0.0,0.0,100,0.04,,,-99.99,,2013-03-01 03:52:00,
2013-02-28 21:01:00,32.0,32.0,-100.00,ESE,112,0.0,0.0,100,0.04,,,-99.99,,2013-03-01 04:01:00,
2013-02-28 21:11:00,32.0,32.0,-100.00,ESE,103,0.0,1.0,100,0.08,,,-99.99,,2013-03-01 04:11:00,
2013-02-28 21:21:00,32.0,32.0,-100.00,ESE,103,0.0,0.0,100,0.12,,,-99.99,,2013-03-01 04:21:00,
2013-02-28 21:31:00,32.0,32.0,-100.00,ESE,103,0.0,0.0,100,0.12,,,-99.99,,2013-03-01 04:31:00,
2013-02-28 21:41:00,32.0,32.0,-100.00,East,89,0.0,0.0,100,0.31,,,-99.99,,2013-03-01 04:41:00,
2013-02-28 21:52:00,33.0,33.0,-100.00,SE,127,0.0,0.0,100,0.24,,,-99.99,,2013-03-01 04:52:00,
2013-02-28 22:01:00,33.0,33.0,-100.00,SE,127,0.0,0.0,100,0.24,,,-99.99,,2013-03-01 05:01:00,
2013-02-28 22:11:00,33.0,33.0,-100.00,SE,127,0.0,1.0,100,0.24,,,-99.99,,2013-03-01 05:11:00,
2013-02-28 22:22:00,33.0,33.0,-100.00,ENE,76,0.0,1.0,100,0.24,,,-99.99,,2013-03-01 05:22:00,
2013-02-28 22:32:00,33.0,33.0,-100.00,ENE,76,0.0,1.0,100,0.24,,,-99.99,,2013-03-01 05:32:00,
2013-02-28 22:41:00,33.0,33.0,-100.00,ESE,113,0.0,1.0,100,0.20,,,-99.99,,2013-03-01 05:41:00,
2013-02-28 22:52:00,32.0,32.0,-100.00,ENE,73,0.0,0.0,100,0.00,,,-99.99,,2013-03-01 05:52:00,
2013-02-28 23:01:00,32.0,32.0,-100.00,ENE,73,0.0,0.0,100,0.00,,,-99.99,,2013-03-01 06:01:00,
2013-02-28 23:11:00,33.0,33.0,-100.00,SSE,150,0.0,0.0,100,0.00,,,-99.99,,2013-03-01 06:11:00,
2013-02-28 23:21:00,33.0,33.0,-100.00,East,90,0.0,0.0,100,0.00,,,-99.99,,2013-03-01 06:21:00,
2013-02-28 23:31:00,33.0,33.0,-100.00,East,90,0.0,0.0,100,0.00,,,-99.99,,2013-03-01 06:31:00,
2013-02-28 23:42:00,33.0,33.0,-100.00,East,90,0.0,0.0,100,0.00,,,-99.99,,2013-03-01 06:42:00,
2013-02-28 23:52:00,33.0,33.0,-100.00,WNW,292,0.0,0.0,100,0.00,,,-99.99,,2013-03-01 06:52:00,